Home > Weather > Edinburgh > Past weeks

Flag for United Kingdom Past Weather in Edinburgh, Scotland, United Kingdom — Yesterday and Last 2 Weeks

Now
46 °F

Fog.


Feels Like: 46 °F
Forecast: 53 / 62 °F
Wind: 1 mph from North

Location: Edinburgh Airport

Current Time: Aug 25, 2016 at 2:10:38 AM

Latest Report: Aug 25, 2016 at 1:50 AM


Visibility: 1 mi

Pressure: 30.12 "Hg

Humidity: 100%

Dew Point: 46 °F

Location of EdinburghLocation

Past Weather in Edinburgh — Graph

°F

Edinburgh Temperature Yesterday

Maximum temperature yesterday: 70 °F (at 2:50 PM)
Minimum temperature yesterday: 50 °F (at 9:50 PM)
Average temperature yesterday: 60 °F

High & Low Weather Summary for the Past Weeks

 TemperatureHumidityPressure
High70 °F (Aug 16, 3:20 PM)100% (Aug 10, 1:20 AM)30.33 "Hg (Aug 10, 1:20 AM)
Low41 °F (Aug 10, 5:50 AM)43% (Aug 24, 3:50 PM)29.33 "Hg (Aug 20, 3:20 PM)
Average58 °F87%29.98 "Hg
* Reported Aug 10 1:20 AM — Aug 25 1:20 AM, Edinburgh, Weather by CustomWeather, © 2016

Note: Actual official high and low records may vary slightly from our data, if they occured in-between our weather recording intervals... More about our weather records

Advertising

Edinburgh Weather History for the Previous 24 Hours

Scroll right to see more
 ConditionsComfort  
Time TempWeatherWind HumidityBarometerVisibility
1:20 AM
Thu, Aug 25
46 °FClear.1 mph100%30.12 "Hg10 mi
12:20 AM48 °FClear.1 mph94%30.15 "Hg10 mi
11:50 PM
Wed, Aug 24
50 °FClear.1 mph94%30.15 "Hg10 mi
11:20 PM50 °FClear.3 mph94%30.15 "Hg10 mi
10:50 PM50 °FClear.1 mph94%30.15 "Hg10 mi
10:20 PM52 °FCool.3 mph88%30.15 "HgN/A
9:50 PM50 °FClear.1 mph94%30.15 "Hg10 mi
9:20 PM54 °FSunny.2 mph88%30.15 "Hg10 mi
8:50 PM57 °FSunny.5 mph72%30.15 "Hg10 mi
8:20 PM57 °FSunny.2 mph77%30.12 "Hg10 mi
7:50 PM63 °FSunny.3 mph64%30.12 "Hg10 mi
7:20 PM63 °FSunny.2 mph64%30.12 "Hg10 mi
6:50 PM64 °FSunny.3 mph60%30.12 "Hg10 mi
6:20 PM68 °FPassing clouds.6 mph53%30.12 "HgN/A
5:50 PM70 °FPassing clouds.6 mph50%30.12 "HgN/A
5:20 PM70 °FPassing clouds.6 mph50%30.12 "HgN/A
4:50 PM70 °FPassing clouds.6 mph50%30.12 "HgN/A
4:20 PM68 °FPassing clouds.6 mph46%30.12 "HgN/A
3:50 PM68 °FPassing clouds.7 mph43%30.12 "HgN/A
3:20 PM68 °FPassing clouds.6 mph46%30.15 "HgN/A
2:50 PM70 °FPassing clouds.7 mph50%30.15 "HgN/A
2:20 PM68 °FPassing clouds.8 mph49%30.12 "HgN/A
1:50 PM68 °FPassing clouds.8 mph49%30.12 "HgN/A
1:20 PM68 °FSunny.8 mph49%30.12 "Hg10 mi
12:50 PM66 °FPassing clouds.7 mph52%30.12 "HgN/A
12:20 PM66 °FSunny.10 mph49%30.12 "Hg10 mi
11:50 AM64 °FPassing clouds.8 mph56%30.12 "HgN/A
11:20 AM64 °FSunny.10 mph56%30.12 "Hg10 mi
10:50 AM63 °FPassing clouds.8 mph64%30.12 "HgN/A
10:20 AM63 °FPassing clouds.9 mph68%30.12 "HgN/A
9:50 AM61 °FSunny.9 mph72%30.12 "Hg10 mi
9:20 AM61 °FSunny.9 mph77%30.12 "Hg10 mi
8:50 AM59 °FSunny.7 mph82%30.12 "Hg10 mi
8:20 AM55 °FSunny.8 mph94%30.12 "Hg10 mi
7:50 AM54 °FSunny.7 mph94%30.12 "Hg10 mi
7:20 AM54 °FSunny.8 mph94%30.09 "Hg10 mi
6:50 AM55 °FCool.8 mph94%30.09 "HgN/A
6:20 AM55 °FClear.7 mph94%30.09 "Hg10 mi
5:50 AM55 °FClear.8 mph94%30.09 "Hg10 mi
5:20 AM57 °FPassing clouds.8 mph94%30.07 "HgN/A
4:50 AM57 °FClear.7 mph94%30.07 "Hg10 mi
4:20 AM57 °FCool.7 mph94%30.07 "HgN/A
3:50 AM57 °FCool.6 mph94%30.07 "HgN/A
3:20 AM57 °FPassing clouds.6 mph94%30.07 "HgN/A
2:50 AM59 °FPartly cloudy.3 mph94%30.07 "HgN/A
2:20 AM59 °FPassing clouds.5 mph94%30.07 "HgN/A
Weather by CustomWeather, © 2016

See weather overviewHow to use our weather pages